Location: Caltech
(34.1382°N, 118.1253°W)
Time: 05:36:12
(UTC-08:00)

UOSAT-12 - Visible Passes

Search period start: 09 December 2016 00:00
Search period end: 19 December 2016 00:00
Orbit: 616 x 638 km, 64.6° (Epoch: 08 December)

Date Brightness Start Highest point End Pass type
(mag) Time Alt. Az. Time Alt. Az. Time Alt. Az.
09 Dec 9.1 03:59:41 26° E 03:59:41 26° E 04:02:20 10° ESE visible
09 Dec 8.3 05:37:02 21° W 05:38:10 23° WSW 05:41:47 10° SSW visible
09 Dec 8.5 18:02:16 10° SSE 18:05:19 21° ESE 18:05:19 21° ESE visible
09 Dec 9.7 19:41:25 10° WSW 19:42:40 17° WSW 19:42:40 17° WSW visible
10 Dec 8.4 04:19:56 37° SE 04:19:56 37° SE 04:22:47 10° SE visible
10 Dec 7.2 18:20:54 10° S 18:25:15 51° ESE 18:25:32 50° E visible
10 Dec 10.3 20:02:50 10° W 20:02:53 10° W 20:02:53 10° W visible
11 Dec 8.6 04:40:13 25° S 04:40:13 25° S 04:42:21 10° S visible
11 Dec 7.3 18:40:35 10° SW 18:45:02 65° WNW 18:45:41 56° NNW visible
12 Dec 9.4 05:00:32 11° SSW 05:00:32 11° SSW 05:00:51 10° SSW visible
12 Dec 8.2 17:21:23 10° SSE 17:25:03 25° ESE 17:28:26 12° ENE visible
12 Dec 8.7 19:01:08 10° WSW 19:05:01 28° NW 19:05:46 27° NW visible
13 Dec 7.1 17:40:17 10° SSW 17:44:42 62° ESE 17:48:25 15° NE visible
13 Dec 9.7 19:22:54 10° WNW 19:25:12 14° NW 19:25:45 13° NW visible
14 Dec 7.7 18:00:09 10° SW 18:04:32 53° WNW 18:08:20 14° NNE visible
15 Dec 9.1 18:20:54 10° WSW 18:24:33 24° NW 18:28:09 10° N visible
16 Dec 9.8 18:43:12 10° WNW 18:44:48 12° NW 18:46:24 10° NNW visible
17 Dec 8.1 17:19:45 10° SW 17:24:03 44° WNW 17:28:24 10° NNE visible
18 Dec 9.3 17:40:44 10° W 17:44:07 20° NW 17:47:31 10° N visible
